Regional Weather Roundup
Issued by NWS

Home | Current Version | Previous Version | Text Only | Print | Product List | Glossary Off
Versions: 1 2 3 4 5 6 7 8 9 10 11 12 13 14 15 16 17 18 19 20 21 22 23 24 25 26 27 28 29 30 31 32 33 34 35 36 37 38 39 40 41 42 43 44 45 46 47 48 49 50

000
ASUS45 KTFX 261710
RWRMT
MONTANA HOURLY WEATHER ROUNDUP
NATIONAL WEATHER SERVICE MISSOULA MT
1000 AM MST THU FEB 26 2015

NOTE: "FAIR" INDICATES FEW OR NO CLOUDS BELOW 12,000 FEET WITH NO
SIGNIFICANT WEATHER AND/OR OBSTRUCTIONS TO VISIBILITY.

MTZ001>007-043-261800-
WEST OF THE DIVIDE

CITY           SKY/WX    TMP DP  RH WIND       PRES   REMARKS
KALISPELL      SUNNY     28  12  51 NE12      30.20F
MISSOULA       SUNNY     27  12  53 SE20      30.19F WCI  13
BUTTE          CLOUDY    17  10  74 CALM      30.09F
$$

MTZ008-014-015-261800-
SOUTHWEST MONTANA

CITY           SKY/WX    TMP DP  RH WIND       PRES   REMARKS
HELENA         CLOUDY    17   6  62 NW6       30.26F WCI   9
BOZEMAN        FLURRIES  15   9  76 CALM      30.20S
DILLON         LGT SNOW  16  12  84 NE15      30.09F FOG     WCI   1
$$

MTZ009-010-012-261800-
EAST SLOPES

CITY           SKY/WX    TMP DP  RH WIND       PRES   REMARKS
CUT BANK       CLOUDY     8   5  87 SE10      30.31F FOG     WCI  -6
GREAT FALLS    LGT SNOW  10   7  85 NE5       30.33S VSB 1   WCI   2
$$

MTZ011-013-028-029-040-261800-
CENTRAL MONTANA

CITY           SKY/WX    TMP DP  RH WIND       PRES   REMARKS
HAVRE          SUNNY      8   1  73 E15       30.47F WCI  -9
LEWISTOWN      CLOUDY     8   2  76 E9        30.31F WCI  -5
BILLINGS       PTSUNNY    9   1  70 E10       30.38S WCI  -5
LIVINGSTON     CLOUDY     9   2  73 E16       30.24S WCI  -8
$$

MTZ016>027-032-033-261800-
EASTERN PLAINS

CITY           SKY/WX    TMP DP  RH WIND       PRES   REMARKS
GLASGOW        SUNNY      2  -9  60 S3        30.57S
WOLF POINT     SUNNY      3  -8  60 VRB3      30.62S
SIDNEY         SUNNY      1  -8  66 NW5       30.62S WCI  -8
JORDAN           N/A      4  -3  73 CALM      30.52S
GLENDIVE       SUNNY      0  -8  71 N6        30.56R WCI -12
MILES CITY     SUNNY      2  -2  83 VRB3      30.53S
BAKER          SUNNY      1  -5  75 W7        30.48R WCI -12
$$

REGIONAL REPORTS...DAKOTAS

CITY           SKY/WX    TMP DP  RH WIND       PRES   REMARKS
WILLISTON      SUNNY      0 -10  63 NE3       30.60S
MINOT          SUNNY     -4 -14  62 W9        30.56R WCI -20
DICKINSON      SUNNY      0  -8  69 NW10      30.48R WCI -16
BISMARCK       SUNNY      0 -11  59 NW9       30.59R WCI -15
BUFFALO SD       N/A      0  -8  69 NW9       30.38R WCI -15
RAPID CITY     MOSUNNY    1  -5  75 N15       30.42S WCI -18
$$

REGIONAL REPORTS...WYOMING/IDAHO/WASHINGTON

CITY           SKY/WX    TMP DP  RH WIND       PRES   REMARKS
GILLETTE       CLOUDY     4  -2  76 NE8       30.32R HAZE    WCI  -9
SHERIDAN       CLOUDY     8   0  69 NE7       30.35S WCI  -3
BUFFALO WY     LGT SNOW   5  -1  76 N3        30.25S
CODY           PTSUNNY   10   9  92 NE9       30.19S WCI  -2
YELLOWSTONE LA   N/A      3  -3  76 E5        29.98F WCI  -6
IDAHO FALLS    PTSUNNY   31  12  45 N16       30.03R
SALMON         PTSUNNY   30  18  59 CALM      30.06S
BOISE          CLOUDY    42  34  73 NW8       30.08S
SPOKANE        CLOUDY    35  28  75 NE6       30.11S
$$

REGIONAL REPORTS...CANADIAN

CITY           SKY/WX    TMP DP  RH WIND       PRES   REMARKS
EDMONTON       SUNNY      5  -4  66 S15       30.34F WCI -13
CALGARY        FLURRIES  10   5  79 S17       30.24F WCI  -7
LETHBRIDGE     MOSUNNY   12   7  79 S9        30.36F WCI   0
MEDICINE HAT   SUNNY      1  -4  78 S3        30.49F
SWIFT CURRENT  SUNNY      0  -4  85 S8        30.48F WCI -15
REGINA         SUNNY    -15 -18  84 NW2       30.60S
SASKATOON      SUNNY    -11 -17  77 W9        30.62S WCI -29
$$



USA.gov is the U.S. government's official web portal to all federal, state and local government web resources and services.